owner,sensor,date,latitude,longitude,vertical_datum,direction_of_sea_water_velocity,sea_water_speed,upward_sea_water_velocity,qcFlag 
ADCP,ioos:station:wmo:42875:1,2015-11-01T00:32:00Z,28.1540,-89.8360,57.1,80.0,25.5,-5.1,'1111122,1111122,1111122' 
ADCP,ioos:station:wmo:42875:1,2015-11-01T01:22:00Z,28.1540,-89.8360,57.1,84.0,26.6,-4.6,'1111122,1111122,1111122' 
ADCP,ioos:station:wmo:42875:1,2015-11-01T02:22:00Z,28.1540,-89.8360,57.1,78.0,31.2,-5.2,'1111122,1111122,1111122' 
ADCP,ioos:station:wmo:42875:1,2015-11-01T03:32:00Z,28.1540,-89.8360,57.1,78.0,34.3,-6.4,'1111122,1111122,1111122' 
ADCP,ioos:station:wmo:42875:1,2015-11-01T04:32:00Z,28.1540,-89.8360,57.1,76.0,33.4,-3.3,'1111122,1111122,1111122' 
ADCP,ioos:station:wmo:42875:1,2015-11-01T05:32:00Z,28.1540,-89.8360,57.1,76.0,37.1,-2.6,'1111122,1111122,1111122' 
ADCP,ioos:station:wmo:42875:1,2015-11-01T06:32:00Z,28.1540,-89.8360,57.1,80.0,31.9,-1.6,'1111122,1111122,1111122' 
ADCP,ioos:station:wmo:42875:1,2015-11-01T07:32:00Z,28.1540,-89.8360,57.1,77.0,36.0,-2.7,'1111122,1111122,1111122' 
ADCP,ioos:station:wmo:42875:1,2015-11-01T08:32:00Z,28.1540,-89.8360,57.1,71.0,35.9,-2.9,'1111122,1111122,1111122' 
ADCP,ioos:station:wmo:42875:1,2015-11-01T09:32:00Z,28.1540,-89.8360,57.1,66.0,37.8,-3.4,'1111122,1111122,1111122' 
ADCP,ioos:station:wmo:42875:1,2015-11-01T10:32:00Z,28.1540,-89.8360,57.1,66.0,42.7,-2.7,'1111122,1111122,1111122' 
ADCP,ioos:station:wmo:42875:1,2015-11-01T11:32:00Z,28.1540,-89.8360,57.1,67.0,50.7,-3.1,'1111122,1111122,1111122' 
ADCP,ioos:station:wmo:42875:1,2015-11-01T12:32:00Z,28.1540,-89.8360,57.1,67.0,53.5,-4.7,'1111122,1111122,1111122' 
ADCP,ioos:station:wmo:42875:1,2015-11-01T13:32:00Z,28.1540,-89.8360,57.1,67.0,52.4,-6.6,'1111122,1111122,1111122' 
ADCP,ioos:station:wmo:42875:1,2015-11-01T14:32:00Z,28.1540,-89.8360,57.1,73.0,52.7,-5.3,'1111122,1111122,1111122' 
ADCP,ioos:station:wmo:42875:1,2015-11-01T15:02:00Z,28.1540,-89.8360,57.1,71.0,49.9,-4.9,'1111122,1111122,1111122' 
ADCP,ioos:station:wmo:42875:1,2015-11-01T16:12:00Z,28.1540,-89.8360,57.1,72.0,49.8,-5.4,'1111122,1111122,1111122' 
ADCP,ioos:station:wmo:42875:1,2015-11-01T17:32:00Z,28.1540,-89.8360,57.1,63.0,47.9,-6.4,'1111122,1111122,1111122' 
ADCP,ioos:station:wmo:42875:1,2015-11-01T18:32:00Z,28.1540,-89.8360,57.1,63.0,44.8,-5.6,'1111122,1111122,1111122' 
ADCP,ioos:station:wmo:42875:1,2015-11-01T19:32:00Z,28.1540,-89.8360,57.1,60.0,45.3,-5.8,'1111122,1111122,1111122' 
ADCP,ioos:station:wmo:42875:1,2015-11-01T20:32:00Z,28.1540,-89.8360,57.1,59.0,43.1,-4.4,'1111122,1111122,1111122' 
ADCP,ioos:station:wmo:42875:1,2015-11-01T21:32:00Z,28.1540,-89.8360,57.1,56.0,46.0,-4.9,'1111122,1111122,1111122' 
ADCP,ioos:station:wmo:42875:1,2015-11-01T22:32:00Z,28.1540,-89.8360,57.1,57.0,54.0,-3.0,'1111122,1111122,1111122' 
ADCP,ioos:station:wmo:42875:1,2015-11-01T23:32:00Z,28.1540,-89.8360,57.1,57.0,51.7,-1.2,'1111122,1111122,1111122' 
ADCP,ioos:station:wmo:42875:1,2015-11-02T00:32:00Z,28.1540,-89.8360,57.1,56.0,56.1,-2.1,'1111122,1111122,1111122' 
ADCP,ioos:station:wmo:42875:1,2015-11-02T01:32:00Z,28.1540,-89.8360,57.1,47.0,53.6,-0.9,'1111122,1111122,1111122' 
ADCP,ioos:station:wmo:42875:1,2015-11-02T02:32:00Z,28.1540,-89.8360,57.1,50.0,50.5,-0.6,'1111122,1111122,1111122' 
ADCP,ioos:station:wmo:42875:1,2015-11-02T03:32:00Z,28.1540,-89.8360,57.1,54.0,50.2,0.4,'1111122,1111122,1111122' 
ADCP,ioos:station:wmo:42875:1,2015-11-02T04:32:00Z,28.1540,-89.8360,57.1,56.0,57.1,-0.6,'1111122,1111122,1111122' 
ADCP,ioos:station:wmo:42875:1,2015-11-02T05:32:00Z,28.1540,-89.8360,57.1,46.0,53.5,-1.1,'1111122,1111122,1111122' 
ADCP,ioos:station:wmo:42875:1,2015-11-02T06:32:00Z,28.1540,-89.8360,57.1,46.0,51.5,-0.1,'1111122,1111122,1111122' 
ADCP,ioos:station:wmo:42875:1,2015-11-02T07:32:00Z,28.1540,-89.8360,57.1,48.0,52.4,0.8,'1111122,1111122,1111122' 
ADCP,ioos:station:wmo:42875:1,2015-11-02T08:32:00Z,28.1540,-89.8360,57.1,53.0,52.2,1.4,'1111122,1111122,1111122' 
ADCP,ioos:station:wmo:42875:1,2015-11-02T09:32:00Z,28.1540,-89.8360,57.1,55.0,51.9,-0.2,'1111122,1111122,1111122' 
ADCP,ioos:station:wmo:42875:1,2015-11-02T10:32:00Z,28.1540,-89.8360,57.1,57.0,55.4,-0.2,'1111122,1111122,1111122' 
ADCP,ioos:station:wmo:42875:1,2015-11-02T11:32:00Z,28.1540,-89.8360,57.1,59.0,61.5,0.5,'1111122,1111122,1111122' 
ADCP,ioos:station:wmo:42875:1,2015-11-02T12:32:00Z,28.1540,-89.8360,57.1,58.0,55.2,-2.4,'1111122,1111122,1111122' 
ADCP,ioos:station:wmo:42875:1,2015-11-02T13:32:00Z,28.1540,-89.8360,57.1,59.0,50.9,-2.4,'1111122,1111122,1111122' 
ADCP,ioos:station:wmo:42875:1,2015-11-02T14:32:00Z,28.1540,-89.8360,57.1,60.0,46.5,-3.5,'1111122,1111122,1111122' 
ADCP,ioos:station:wmo:42875:1,2015-11-02T15:22:00Z,28.1540,-89.8360,57.1,59.0,40.7,-3.0,'1111122,1111122,1111122' 
ADCP,ioos:station:wmo:42875:1,2015-11-02T16:32:00Z,28.1540,-89.8360,57.1,62.0,39.6,-4.3,'1111122,1111122,1111122' 
ADCP,ioos:station:wmo:42875:1,2015-11-02T17:32:00Z,28.1540,-89.8360,57.1,59.0,40.1,-3.7,'1111122,1111122,1111122' 
ADCP,ioos:station:wmo:42875:1,2015-11-02T18:32:00Z,28.1540,-89.8360,57.1,56.0,36.9,-2.3,'1111122,1111122,1111122' 
ADCP,ioos:station:wmo:42875:1,2015-11-02T19:32:00Z,28.1540,-89.8360,57.1,52.0,43.4,-3.7,'1111122,1111122,1111122' 
ADCP,ioos:station:wmo:42875:1,2015-11-02T20:32:00Z,28.1540,-89.8360,57.1,59.0,42.1,-2.6,'1111122,1111122,1111122' 
ADCP,ioos:station:wmo:42875:1,2015-11-02T22:32:00Z,28.1540,-89.8360,57.1,54.0,50.8,-3.3,'1111122,1111122,1111122' 
ADCP,ioos:station:wmo:42875:1,2015-11-02T23:22:00Z,28.1540,-89.8360,57.1,53.0,43.6,-3.8,'1111122,1111122,1111122' 
ADCP,ioos:station:wmo:42875:1,2015-11-03T00:32:00Z,28.1540,-89.8360,57.1,58.0,50.7,-3.6,'1111122,1111122,1111122' 
ADCP,ioos:station:wmo:42875:1,2015-11-03T01:32:00Z,28.1540,-89.8360,57.1,71.0,50.1,-1.2,'1111122,1111122,1111122' 
ADCP,ioos:station:wmo:42875:1,2015-11-03T02:22:00Z,28.1540,-89.8360,57.1,75.0,46.7,-3.5,'1111122,1111122,1111122' 
ADCP,ioos:station:wmo:42875:1,2015-11-03T03:32:00Z,28.1540,-89.8360,57.1,75.0,52.8,-1.3,'1111122,1111122,1111122' 
ADCP,ioos:station:wmo:42875:1,2015-11-03T04:32:00Z,28.1540,-89.8360,57.1,73.0,49.6,-1.8,'1111122,1111122,1111122' 
ADCP,ioos:station:wmo:42875:1,2015-11-03T05:32:00Z,28.1540,-89.8360,57.1,68.0,54.5,-3.0,'1111122,1111122,1111122' 
ADCP,ioos:station:wmo:42875:1,2015-11-03T06:32:00Z,28.1540,-89.8360,57.1,69.0,51.5,-2.0,'1111122,1111122,1111122' 
ADCP,ioos:station:wmo:42875:1,2015-11-03T07:32:00Z,28.1540,-89.8360,57.1,71.0,54.3,-1.3,'1111122,1111122,1111122' 
ADCP,ioos:station:wmo:42875:1,2015-11-03T08:32:00Z,28.1540,-89.8360,57.1,71.0,48.5,-2.1,'1111122,1111122,1111122' 
ADCP,ioos:station:wmo:42875:1,2015-11-03T09:32:00Z,28.1540,-89.8360,57.1,72.0,44.2,-2.3,'1111122,1111122,1111122' 
ADCP,ioos:station:wmo:42875:1,2015-11-03T10:22:00Z,28.1540,-89.8360,57.1,73.0,45.1,-2.1,'1111122,1111122,1111122' 
ADCP,ioos:station:wmo:42875:1,2015-11-03T11:32:00Z,28.1540,-89.8360,57.1,69.0,44.7,-0.8,'1111122,1111122,1111122' 
ADCP,ioos:station:wmo:42875:1,2015-11-03T12:32:00Z,28.1540,-89.8360,57.1,66.0,41.3,-4.0,'1111122,1111122,1111122' 
ADCP,ioos:station:wmo:42875:1,2015-11-03T13:32:00Z,28.1540,-89.8360,57.1,71.0,41.4,-3.8,'1111122,1111122,1111122' 
ADCP,ioos:station:wmo:42875:1,2015-11-03T14:32:00Z,28.1540,-89.8360,57.1,76.0,43.3,-5.4,'1111122,1111122,1111122' 
ADCP,ioos:station:wmo:42875:1,2015-11-03T15:22:00Z,28.1540,-89.8360,57.1,69.0,43.0,-7.4,'1111122,1111122,1111122' 
ADCP,ioos:station:wmo:42875:1,2015-11-03T16:32:00Z,28.1540,-89.8360,57.1,67.0,47.0,-9.4,'1111122,1111122,1111122' 
ADCP,ioos:station:wmo:42875:1,2015-11-03T17:32:00Z,28.1540,-89.8360,57.1,65.0,53.7,-7.6,'1111122,1111122,1111122' 
ADCP,ioos:station:wmo:42875:1,2015-11-03T18:32:00Z,28.1540,-89.8360,57.1,66.0,48.2,-6.0,'1111122,1111122,1111122' 
ADCP,ioos:station:wmo:42875:1,2015-11-03T19:32:00Z,28.1540,-89.8360,57.1,60.0,47.0,-6.7,'1111122,1111122,1111122' 
ADCP,ioos:station:wmo:42875:1,2015-11-03T20:32:00Z,28.1540,-89.8360,57.1,64.0,46.1,-6.4,'1111122,1111122,1111122' 
ADCP,ioos:station:wmo:42875:1,2015-11-03T21:32:00Z,28.1540,-89.8360,57.1,68.0,47.5,-7.0,'1111122,1111122,1111122' 
ADCP,ioos:station:wmo:42875:1,2015-11-03T22:32:00Z,28.1540,-89.8360,57.1,68.0,53.4,-6.9,'1111122,1111122,1111122' 
ADCP,ioos:station:wmo:42875:1,2015-11-03T23:32:00Z,28.1540,-89.8360,57.1,69.0,53.6,-8.8,'1111122,1111122,1111122' 
ADCP,ioos:station:wmo:42875:1,2015-11-04T00:32:00Z,28.1540,-89.8360,57.1,69.0,54.5,-5.5,'1111122,1111122,1111122' 
ADCP,ioos:station:wmo:42875:1,2015-11-04T01:32:00Z,28.1540,-89.8360,57.1,76.0,57.3,-5.8,'1111122,1111122,1111122' 
ADCP,ioos:station:wmo:42875:1,2015-11-04T02:32:00Z,28.1540,-89.8360,57.1,72.0,65.0,-4.5,'1111122,1111122,1111122' 
ADCP,ioos:station:wmo:42875:1,2015-11-04T03:32:00Z,28.1540,-89.8360,57.1,70.0,64.2,-4.9,'1111122,1111122,1111122' 
ADCP,ioos:station:wmo:42875:1,2015-11-04T05:32:00Z,28.1540,-89.8360,57.1,73.0,62.5,-4.5,'1111122,1111122,1111122' 
ADCP,ioos:station:wmo:42875:1,2015-11-04T06:32:00Z,28.1540,-89.8360,57.1,71.0,57.8,-5.4,'1111122,1111122,1111122' 
ADCP,ioos:station:wmo:42875:1,2015-11-04T07:32:00Z,28.1540,-89.8360,57.1,69.0,57.7,-3.1,'1111122,1111122,1111122' 
ADCP,ioos:station:wmo:42875:1,2015-11-04T08:32:00Z,28.1540,-89.8360,57.1,70.0,55.6,-3.2,'1111122,1111122,1111122' 
ADCP,ioos:station:wmo:42875:1,2015-11-04T09:32:00Z,28.1540,-89.8360,57.1,70.0,55.1,-3.7,'1111122,1111122,1111122' 
ADCP,ioos:station:wmo:42875:1,2015-11-04T10:32:00Z,28.1540,-89.8360,57.1,70.0,55.6,-5.7,'1111122,1111122,1111122' 
ADCP,ioos:station:wmo:42875:1,2015-11-04T11:32:00Z,28.1540,-89.8360,57.1,63.0,55.5,-7.1,'1111122,1111122,1111122' 
ADCP,ioos:station:wmo:42875:1,2015-11-04T12:32:00Z,28.1540,-89.8360,57.1,64.0,56.8,-6.7,'1111122,1111122,1111122' 
ADCP,ioos:station:wmo:42875:1,2015-11-04T13:32:00Z,28.1540,-89.8360,57.1,68.0,59.3,-6.7,'1111122,1111122,1111122' 
ADCP,ioos:station:wmo:42875:1,2015-11-04T14:32:00Z,28.1540,-89.8360,57.1,67.0,60.8,-6.5,'1111122,1111122,1111122' 
ADCP,ioos:station:wmo:42875:1,2015-11-04T16:32:00Z,28.1540,-89.8360,57.1,71.0,56.3,-6.2,'1111122,1111122,1111122' 
ADCP,ioos:station:wmo:42875:1,2015-11-04T17:32:00Z,28.1540,-89.8360,57.1,72.0,53.3,-6.3,'1111122,1111122,1111122' 
ADCP,ioos:station:wmo:42875:1,2015-11-04T19:32:00Z,28.1540,-89.8360,57.1,72.0,52.3,-4.0,'1111122,1111122,1111122' 
ADCP,ioos:station:wmo:42875:1,2015-11-04T20:32:00Z,28.1540,-89.8360,57.1,70.0,52.6,-4.6,'1111122,1111122,1111122' 
ADCP,ioos:station:wmo:42875:1,2015-11-04T21:32:00Z,28.1540,-89.8360,57.1,65.0,49.8,-3.6,'1111122,1111122,1111122' 
ADCP,ioos:station:wmo:42875:1,2015-11-04T22:32:00Z,28.1540,-89.8360,57.1,69.0,49.9,-3.4,'1111122,1111122,1111122' 
ADCP,ioos:station:wmo:42875:1,2015-11-04T23:32:00Z,28.1540,-89.8360,57.1,69.0,50.5,-3.7,'1111122,1111122,1111122' 
ADCP,ioos:station:wmo:42875:1,2015-11-05T00:32:00Z,28.1540,-89.8360,57.1,69.0,52.0,-3.4,'1111122,1111122,1111122' 
ADCP,ioos:station:wmo:42875:1,2015-11-05T01:32:00Z,28.1540,-89.8360,57.1,71.0,51.7,-3.1,'1111122,1111122,1111122' 
ADCP,ioos:station:wmo:42875:1,2015-11-05T02:32:00Z,28.1540,-89.8360,57.1,75.0,55.5,-1.3,'1111122,1111122,1111122' 
ADCP,ioos:station:wmo:42875:1,2015-11-05T03:32:00Z,28.1540,-89.8360,57.1,75.0,56.2,-1.3,'1111122,1111122,1111122' 
ADCP,ioos:station:wmo:42875:1,2015-11-05T04:32:00Z,28.1540,-89.8360,57.1,73.0,54.8,1.1,'1111122,1111122,1111122' 
ADCP,ioos:station:wmo:42875:1,2015-11-05T05:32:00Z,28.1540,-89.8360,57.1,77.0,54.2,1.3,'1111122,1111122,1111122' 
ADCP,ioos:station:wmo:42875:1,2015-11-05T06:32:00Z,28.1540,-89.8360,57.1,75.0,52.4,0.9,'1111122,1111122,1111122' 
ADCP,ioos:station:wmo:42875:1,2015-11-05T07:32:00Z,28.1540,-89.8360,57.1,76.0,55.1,1.3,'1111122,1111122,1111122' 
ADCP,ioos:station:wmo:42875:1,2015-11-05T08:32:00Z,28.1540,-89.8360,57.1,69.0,56.7,-2.7,'1111122,1111122,1111122' 
ADCP,ioos:station:wmo:42875:1,2015-11-05T09:32:00Z,28.1540,-89.8360,57.1,65.0,54.8,-0.2,'1111122,1111122,1111122' 
ADCP,ioos:station:wmo:42875:1,2015-11-05T10:32:00Z,28.1540,-89.8360,57.1,64.0,56.2,1.7,'1111122,1111122,1111122' 
ADCP,ioos:station:wmo:42875:1,2015-11-05T11:32:00Z,28.1540,-89.8360,57.1,70.0,61.2,3.1,'1111122,1111122,1111122' 
ADCP,ioos:station:wmo:42875:1,2015-11-05T12:32:00Z,28.1540,-89.8360,57.1,67.0,64.6,-3.1,'1111122,1111122,1111122' 
ADCP,ioos:station:wmo:42875:1,2015-11-05T13:32:00Z,28.1540,-89.8360,57.1,70.0,58.0,-2.0,'1111122,1111122,1111122' 
ADCP,ioos:station:wmo:42875:1,2015-11-05T14:32:00Z,28.1540,-89.8360,57.1,72.0,64.5,-4.0,'1111122,1111122,1111122' 
ADCP,ioos:station:wmo:42875:1,2015-11-05T15:22:00Z,28.1540,-89.8360,57.1,75.0,62.9,-4.0,'1111122,1111122,1111122' 
ADCP,ioos:station:wmo:42875:1,2015-11-05T16:32:00Z,28.1540,-89.8360,57.1,75.0,66.3,-5.3,'1111122,1111122,1111122' 
ADCP,ioos:station:wmo:42875:1,2015-11-05T17:32:00Z,28.1540,-89.8360,57.1,77.0,60.6,-5.8,'1111122,1111122,1111122' 
ADCP,ioos:station:wmo:42875:1,2015-11-05T18:32:00Z,28.1540,-89.8360,57.1,76.0,51.8,-4.3,'1111122,1111122,1111122' 
ADCP,ioos:station:wmo:42875:1,2015-11-05T19:22:00Z,28.1540,-89.8360,57.1,70.0,48.6,-4.6,'1111122,1111122,1111122' 
ADCP,ioos:station:wmo:42875:1,2015-11-05T20:32:00Z,28.1540,-89.8360,57.1,67.0,45.9,-4.0,'1111122,1111122,1111122' 
ADCP,ioos:station:wmo:42875:1,2015-11-05T21:32:00Z,28.1540,-89.8360,57.1,64.0,43.1,-4.2,'1111122,1111122,1111122' 
ADCP,ioos:station:wmo:42875:1,2015-11-05T22:22:00Z,28.1540,-89.8360,57.1,63.0,43.6,-2.0,'1111122,1111122,1111122' 
ADCP,ioos:station:wmo:42875:1,2015-11-05T23:32:00Z,28.1540,-89.8360,57.1,63.0,39.0,-0.9,'1111122,1111122,1111122' 
ADCP,ioos:station:wmo:42875:1,2015-11-06T00:32:00Z,28.1540,-89.8360,57.1,59.0,41.8,-2.1,'1111122,1111122,1111122' 
ADCP,ioos:station:wmo:42875:1,2015-11-06T01:22:00Z,28.1540,-89.8360,57.1,56.0,39.2,-2.5,'1111122,1111122,1111122' 
ADCP,ioos:station:wmo:42875:1,2015-11-06T02:32:00Z,28.1540,-89.8360,57.1,58.0,47.4,-2.3,'1111122,1111122,1111122' 
ADCP,ioos:station:wmo:42875:1,2015-11-06T03:32:00Z,28.1540,-89.8360,57.1,61.0,46.3,-1.3,'1111122,1111122,1111122' 
ADCP,ioos:station:wmo:42875:1,2015-11-06T04:32:00Z,28.1540,-89.8360,57.1,60.0,47.5,-2.1,'1111122,1111122,1111122' 
ADCP,ioos:station:wmo:42875:1,2015-11-06T05:32:00Z,28.1540,-89.8360,57.1,63.0,45.5,-1.8,'1111122,1111122,1111122' 
ADCP,ioos:station:wmo:42875:1,2015-11-06T06:32:00Z,28.1540,-89.8360,57.1,60.0,51.4,0.2,'1111122,1111122,1111122' 
ADCP,ioos:station:wmo:42875:1,2015-11-06T07:32:00Z,28.1540,-89.8360,57.1,61.0,52.5,-1.5,'1111122,1111122,1111122' 
ADCP,ioos:station:wmo:42875:1,2015-11-06T08:32:00Z,28.1540,-89.8360,57.1,62.0,57.0,0.9,'1111122,1111122,1111122' 
ADCP,ioos:station:wmo:42875:1,2015-11-06T09:32:00Z,28.1540,-89.8360,57.1,63.0,56.8,-1.3,'1111122,1111122,1111122' 
ADCP,ioos:station:wmo:42875:1,2015-11-06T11:32:00Z,28.1540,-89.8360,57.1,67.0,55.0,-1.6,'1111122,1111122,1111122' 
ADCP,ioos:station:wmo:42875:1,2015-11-06T13:32:00Z,28.1540,-89.8360,57.1,72.0,50.1,-3.2,'1111122,1111122,1111122' 
ADCP,ioos:station:wmo:42875:1,2015-11-06T14:32:00Z,28.1540,-89.8360,57.1,72.0,49.3,-2.3,'1111122,1111122,1111122' 
ADCP,ioos:station:wmo:42875:1,2015-11-06T15:22:00Z,28.1540,-89.8360,57.1,73.0,47.9,-3.1,'1111122,1111122,1111122' 
ADCP,ioos:station:wmo:42875:1,2015-11-06T16:32:00Z,28.1540,-89.8360,57.1,74.0,47.6,-2.3,'1111122,1111122,1111122' 
ADCP,ioos:station:wmo:42875:1,2015-11-06T17:32:00Z,28.1540,-89.8360,57.1,75.0,44.9,-3.4,'1111122,1111122,1111122' 
ADCP,ioos:station:wmo:42875:1,2015-11-06T18:32:00Z,28.1540,-89.8360,57.1,73.0,41.2,-1.5,'1111122,1111122,1111122' 
ADCP,ioos:station:wmo:42875:1,2015-11-06T19:32:00Z,28.1540,-89.8360,57.1,72.0,42.1,-2.9,'1111122,1111122,1111122' 
ADCP,ioos:station:wmo:42875:1,2015-11-06T20:32:00Z,28.1540,-89.8360,57.1,68.0,42.3,-2.7,'1111122,1111122,1111122' 
ADCP,ioos:station:wmo:42875:1,2015-11-06T21:32:00Z,28.1540,-89.8360,57.1,64.0,38.0,-1.4,'1111122,1111122,1111122' 
ADCP,ioos:station:wmo:42875:1,2015-11-06T22:32:00Z,28.1540,-89.8360,57.1,64.0,40.6,-1.5,'1111122,1111122,1111122' 
ADCP,ioos:station:wmo:42875:1,2015-11-06T23:32:00Z,28.1540,-89.8360,57.1,66.0,37.9,3.0,'1111122,1111122,1111122' 
ADCP,ioos:station:wmo:42875:1,2015-11-07T00:32:00Z,28.1540,-89.8360,57.1,65.0,40.5,0.3,'1111122,1111122,1111122' 
ADCP,ioos:station:wmo:42875:1,2015-11-07T01:32:00Z,28.1540,-89.8360,57.1,68.0,41.0,-1.9,'1111122,1111122,1111122' 
ADCP,ioos:station:wmo:42875:1,2015-11-07T02:32:00Z,28.1540,-89.8360,57.1,70.0,47.1,-1.4,'1111122,1111122,1111122' 
ADCP,ioos:station:wmo:42875:1,2015-11-07T03:32:00Z,28.1540,-89.8360,57.1,66.0,48.9,0.0,'1111122,1111122,1114422' 
ADCP,ioos:station:wmo:42875:1,2015-11-07T04:32:00Z,28.1540,-89.8360,57.1,69.0,46.1,1.0,'1111122,1111122,1111122' 
ADCP,ioos:station:wmo:42875:1,2015-11-07T05:32:00Z,28.1540,-89.8360,57.1,76.0,43.1,1.9,'1111122,1111122,1111122' 
ADCP,ioos:station:wmo:42875:1,2015-11-07T06:32:00Z,28.1540,-89.8360,57.1,75.0,45.9,1.0,'1111122,1111122,1111122' 
ADCP,ioos:station:wmo:42875:1,2015-11-07T07:32:00Z,28.1540,-89.8360,57.1,77.0,46.0,0.0,'1111122,1111122,1114422' 
ADCP,ioos:station:wmo:42875:1,2015-11-07T08:32:00Z,28.1540,-89.8360,57.1,79.0,44.8,0.7,'1111122,1111122,1111122' 
ADCP,ioos:station:wmo:42875:1,2015-11-07T09:32:00Z,28.1540,-89.8360,57.1,82.0,43.4,0.1,'1111122,1111122,1111122' 
ADCP,ioos:station:wmo:42875:1,2015-11-07T10:32:00Z,28.1540,-89.8360,57.1,85.0,40.8,-3.2,'1111122,1111122,1111122' 
ADCP,ioos:station:wmo:42875:1,2015-11-07T11:23:00Z,28.1540,-89.8360,57.1,82.0,40.4,-2.7,'1111122,1111122,1111122' 
ADCP,ioos:station:wmo:42875:1,2015-11-07T12:23:00Z,28.1540,-89.8360,57.1,81.0,35.0,-2.9,'1111122,1111122,1111122' 
ADCP,ioos:station:wmo:42875:1,2015-11-07T13:23:00Z,28.1540,-89.8360,57.1,76.0,36.9,-2.6,'1111122,1111122,1111122' 
ADCP,ioos:station:wmo:42875:1,2015-11-07T14:23:00Z,28.1540,-89.8360,57.1,78.0,36.6,-2.2,'1111122,1111122,1111122' 
ADCP,ioos:station:wmo:42875:1,2015-11-07T15:23:00Z,28.1540,-89.8360,57.1,78.0,41.0,-2.7,'1111122,1111122,1111122' 
ADCP,ioos:station:wmo:42875:1,2015-11-07T16:23:00Z,28.1540,-89.8360,57.1,74.0,39.3,-2.0,'1111122,1111122,1111122' 
ADCP,ioos:station:wmo:42875:1,2015-11-07T18:23:00Z,28.1540,-89.8360,57.1,63.0,32.1,-1.1,'1111122,1111122,1111122' 
ADCP,ioos:station:wmo:42875:1,2015-11-07T19:33:00Z,28.1540,-89.8360,57.1,78.0,29.7,-2.3,'1111122,1111122,1111122' 
ADCP,ioos:station:wmo:42875:1,2015-11-07T20:33:00Z,28.1540,-89.8360,57.1,85.0,30.3,-3.9,'1111122,1111122,1111122' 
ADCP,ioos:station:wmo:42875:1,2015-11-07T21:23:00Z,28.1540,-89.8360,57.1,99.0,29.2,-4.7,'1111122,1111122,1111122' 
ADCP,ioos:station:wmo:42875:1,2015-11-07T23:23:00Z,28.1540,-89.8360,57.1,94.0,41.3,-5.4,'1111122,1111122,1111122' 
ADCP,ioos:station:wmo:42875:1,2015-11-08T00:33:00Z,28.1540,-89.8360,57.1,90.0,39.7,-4.8,'1111122,1111122,1111122' 
ADCP,ioos:station:wmo:42875:1,2015-11-08T01:33:00Z,28.1540,-89.8360,57.1,89.0,42.5,-2.8,'1111122,1111122,1111122' 
ADCP,ioos:station:wmo:42875:1,2015-11-08T02:23:00Z,28.1540,-89.8360,57.1,91.0,38.9,-3.2,'1111122,1111122,1111122' 
ADCP,ioos:station:wmo:42875:1,2015-11-08T04:33:00Z,28.1540,-89.8360,57.1,95.0,36.3,-3.5,'1111122,1111122,1111122' 
ADCP,ioos:station:wmo:42875:1,2015-11-08T05:33:00Z,28.1540,-89.8360,57.1,97.0,38.5,-2.4,'1111122,1111122,1111122' 
ADCP,ioos:station:wmo:42875:1,2015-11-08T06:23:00Z,28.1540,-89.8360,57.1,92.0,38.4,-2.5,'1111122,1111122,1111122' 
ADCP,ioos:station:wmo:42875:1,2015-11-08T07:33:00Z,28.1540,-89.8360,57.1,90.0,36.9,-3.4,'1111122,1111122,1111122' 
ADCP,ioos:station:wmo:42875:1,2015-11-08T08:33:00Z,28.1540,-89.8360,57.1,90.0,37.9,-3.7,'1111122,1111122,1111122' 
ADCP,ioos:station:wmo:42875:1,2015-11-08T09:33:00Z,28.1540,-89.8360,57.1,96.0,43.7,-2.1,'1111122,1111122,1111122' 
ADCP,ioos:station:wmo:42875:1,2015-11-08T10:33:00Z,28.1540,-89.8360,57.1,87.0,40.6,-3.4,'1111122,1111122,1111122' 
ADCP,ioos:station:wmo:42875:1,2015-11-08T11:33:00Z,28.1540,-89.8360,57.1,88.0,41.0,-3.6,'1111122,1111122,1111122' 
ADCP,ioos:station:wmo:42875:1,2015-11-08T12:33:00Z,28.1540,-89.8360,57.1,86.0,40.4,-4.1,'1111122,1111122,1111122' 
ADCP,ioos:station:wmo:42875:1,2015-11-08T13:33:00Z,28.1540,-89.8360,57.1,87.0,43.8,-3.5,'1111122,1111122,1111122' 
ADCP,ioos:station:wmo:42875:1,2015-11-08T14:33:00Z,28.1540,-89.8360,57.1,92.0,44.0,-4.5,'1111122,1111122,1111122' 
ADCP,ioos:station:wmo:42875:1,2015-11-08T15:33:00Z,28.1540,-89.8360,57.1,90.0,43.3,-2.9,'1111122,1111122,1111122' 
ADCP,ioos:station:wmo:42875:1,2015-11-08T16:33:00Z,28.1540,-89.8360,57.1,88.0,38.4,-3.1,'1111122,1111122,1111122' 
ADCP,ioos:station:wmo:42875:1,2015-11-08T17:33:00Z,28.1540,-89.8360,57.1,87.0,38.9,-3.8,'1111122,1111122,1111122' 
ADCP,ioos:station:wmo:42875:1,2015-11-08T18:33:00Z,28.1540,-89.8360,57.1,91.0,37.4,-5.2,'1111122,1111122,1111122' 
ADCP,ioos:station:wmo:42875:1,2015-11-08T19:33:00Z,28.1540,-89.8360,57.1,92.0,37.0,-6.6,'1111122,1111122,1111122' 
ADCP,ioos:station:wmo:42875:1,2015-11-08T20:24:00Z,28.1540,-89.8360,57.1,95.0,37.4,-6.6,'1111122,1111122,1111122' 
ADCP,ioos:station:wmo:42875:1,2015-11-08T21:24:00Z,28.1540,-89.8360,57.1,92.0,33.7,-6.0,'1111122,1111122,1111122' 
ADCP,ioos:station:wmo:42875:1,2015-11-08T22:24:00Z,28.1540,-89.8360,57.1,93.0,35.4,-4.8,'1111122,1111122,1111122' 
ADCP,ioos:station:wmo:42875:1,2015-11-08T23:24:00Z,28.1540,-89.8360,57.1,106.0,37.8,-2.5,'1111122,1111122,1111122' 
ADCP,ioos:station:wmo:42875:1,2015-11-09T00:24:00Z,28.1540,-89.8360,57.1,110.0,33.0,-2.2,'1111122,1111122,1111122' 
ADCP,ioos:station:wmo:42875:1,2015-11-09T01:24:00Z,28.1540,-89.8360,57.1,111.0,31.8,-2.7,'1111122,1111122,1111122' 
ADCP,ioos:station:wmo:42875:1,2015-11-09T02:24:00Z,28.1540,-89.8360,57.1,111.0,29.7,-1.2,'1111122,1111122,1111122' 
ADCP,ioos:station:wmo:42875:1,2015-11-09T03:24:00Z,28.1540,-89.8360,57.1,104.0,33.3,-2.5,'1111122,1111122,1111122' 
ADCP,ioos:station:wmo:42875:1,2015-11-09T04:24:00Z,28.1540,-89.8360,57.1,101.0,33.7,-4.3,'1111122,1111122,1111122' 
ADCP,ioos:station:wmo:42875:1,2015-11-09T05:24:00Z,28.1540,-89.8360,57.1,99.0,32.0,-2.6,'1111122,1111122,1111122' 
ADCP,ioos:station:wmo:42875:1,2015-11-09T06:24:00Z,28.1540,-89.8360,57.1,104.0,36.4,-2.6,'1111122,1111122,1111122' 
ADCP,ioos:station:wmo:42875:1,2015-11-09T07:24:00Z,28.1540,-89.8360,57.1,98.0,36.8,-2.7,'1111122,1111122,1111122' 
ADCP,ioos:station:wmo:42875:1,2015-11-09T08:24:00Z,28.1540,-89.8360,57.1,100.0,44.2,-1.9,'1111122,1111122,1111122' 
ADCP,ioos:station:wmo:42875:1,2015-11-09T09:24:00Z,28.1540,-89.8360,57.1,100.0,40.1,-3.5,'1111122,1111122,1111122' 
ADCP,ioos:station:wmo:42875:1,2015-11-09T10:24:00Z,28.1540,-89.8360,57.1,97.0,43.4,-2.2,'1111122,1111122,1111122' 
ADCP,ioos:station:wmo:42875:1,2015-11-09T11:24:00Z,28.1540,-89.8360,57.1,90.0,43.5,-1.0,'1111122,1111122,1111122' 
ADCP,ioos:station:wmo:42875:1,2015-11-09T12:24:00Z,28.1540,-89.8360,57.1,88.0,43.1,-2.6,'1111122,1111122,1111122' 
ADCP,ioos:station:wmo:42875:1,2015-11-09T13:24:00Z,28.1540,-89.8360,57.1,92.0,45.5,-6.1,'1111122,1111122,1111122' 
ADCP,ioos:station:wmo:42875:1,2015-11-09T14:24:00Z,28.1540,-89.8360,57.1,94.0,41.0,-5.4,'1111122,1111122,1111122' 
ADCP,ioos:station:wmo:42875:1,2015-11-09T15:24:00Z,28.1540,-89.8360,57.1,94.0,37.1,-5.8,'1111122,1111122,1111122' 
ADCP,ioos:station:wmo:42875:1,2015-11-09T16:24:00Z,28.1540,-89.8360,57.1,107.0,39.2,-3.9,'1111122,1111122,1111122' 
ADCP,ioos:station:wmo:42875:1,2015-11-09T17:44:00Z,28.1540,-89.8360,57.1,117.0,36.6,-4.0,'1111122,1111122,1111122' 
ADCP,ioos:station:wmo:42875:1,2015-11-09T18:24:00Z,28.1540,-89.8360,57.1,121.0,35.6,-6.4,'1111122,1111122,1111122' 
ADCP,ioos:station:wmo:42875:1,2015-11-09T19:24:00Z,28.1540,-89.8360,57.1,118.0,41.0,-7.1,'1111122,1111122,1111122' 
ADCP,ioos:station:wmo:42875:1,2015-11-09T20:24:00Z,28.1540,-89.8360,57.1,116.0,41.5,-6.1,'1111122,1111122,1111122' 
ADCP,ioos:station:wmo:42875:1,2015-11-09T21:24:00Z,28.1540,-89.8360,57.1,121.0,36.5,-5.3,'1111122,1111122,1111122' 
ADCP,ioos:station:wmo:42875:1,2015-11-09T22:24:00Z,28.1540,-89.8360,57.1,119.0,35.9,-4.8,'1111122,1111122,1111122' 
ADCP,ioos:station:wmo:42875:1,2015-11-09T23:24:00Z,28.1540,-89.8360,57.1,124.0,30.7,-2.5,'1111122,1111122,1111122' 